Location: Asheville, NC
(35.6000°N, 82.5500°W)
Time: 09:21:09
(UTC-04:00)

RS-15 - Pass Details

Date: 18 March 2018
Orbit: 1890 x 2154 km, 64.8° (Epoch: 24 June)

Event Time Altitude Azimuth Distance (km) Brightness Sun altitude
Exits shadow 23:05:01 24° 49° (NE) 3,591 9.2 -40.1°
Drops below altitude 10° 23:09:01 10° 39° (NE) 4,608 9.9 -40.8°
Sets 23:12:31 0° 35° (NE) 5,586 10.5 -41.3°
